Regional Weather Roundup
Issued by NWS

Home | Current Version | Previous Version | Graphics & Text | Print | Product List | Glossary On
Versions: 1 2 3 4 5 6 7 8 9 10 11 12 13 14 15 16 17 18 19 20 21 22 23 24 25 26 27 28 29 30 31 32 33 34 35 36 37 38 39 40 41 42 43 44 45 46 47 48 49 50
000
ASUS45 KTFX 150104
RWRMT
MONTANA HOURLY WEATHER ROUNDUP
NATIONAL WEATHER SERVICE GREAT FALLS MT
704 PM MDT SUN SEP 14 2014

NOTE: "FAIR" INDICATES FEW OR NO CLOUDS BELOW 12000 FEET WITH NO
SIGNIFICANT WEATHER AND/OR OBSTRUCTIONS TO VISIBILITY.

* THESE STATIONS ARE NOT UNDER NWS QUALITY CONTROL. THEY DO NOT
   REPORT WEATHER SUCH AS PRECIPITATION OR FOG.

MTZ001>007-043-150200-
WEST OF THE DIVIDE
CITY           SKY/WX    TMP DP  RH WIND       PRES   REMARKS
KALISPELL      CLEAR     70  37  30 SW5       30.04F
MISSOULA       CLEAR     72  30  21 N9G18     30.02R
BUTTE          CLEAR     64  30  28 W7        30.12S
MULLAN PASS    PTCLDY    63  28  27 VRB3      30.14F
* LINCOLN      N/A       68  32  26 NE12G17    N/A
* LOOKOUT PASS N/A       63  32  31 VRB2       N/A
* POLSON       N/A       65  32  29 N2         N/A
* RONAN APT    CLEAR     70  30  23 NW5        N/A
* SEELEY LAKE  N/A       72  29  20 W5G11      N/A
* THOMP F APT  CLEAR     73  27  18 SW6G16     N/A
$$

MTZ008-052>055-150200-
SOUTHWEST MONTANA
CITY           SKY/WX    TMP DP  RH WIND       PRES   REMARKS
BOZEMAN        CLEAR     64  37  37 SW6       30.09S
DILLON         CLEAR     66  37  34 NE14      30.07R
W YELLOWSTONE  CLEAR     66  19  16 CALM      30.15S
* THREE FORKS  CLEAR     70  39  32 N/A        N/A
* BOULDER HILL N/A       57  27  32 VRB6       N/A
* MONIDA PASS  N/A       68  24  19 NW9G14     N/A
* RAYNOLDS PAS N/A       65  62  90 NW12G17    N/A
* WHITEHALL    N/A       70  38  31 SE7G16     N/A
* WISE RIVER   N/A       72  15  11 NW8G17     N/A
$$

MTZ009>010-012-014-046-048-049-054-150200-
EAST SLOPES AND CENTRAL MONTANA
CITY           SKY/WX    TMP DP  RH WIND       PRES   REMARKS
CUT BANK       PTCLDY    64  36  35 NE7       30.11S
GREAT FALLS    CLEAR     61  37  41 NE9       30.12S
HELENA         CLEAR     66  36  33 N10       30.09R
MALMSTROM AFB  CLEAR     61  37  41 E8        30.14R
* CONRAD       CLEAR     64  37  37 NE5        N/A
* EAST GLACIER N/A       59  35  41 SE6        N/A
* MONARCH      N/A       54  26  34 NE6        N/A
* PENDROY      N/A       62  29  29 NE4        N/A
* ROGERS PASS  N/A       50  36  59 N1         N/A
* SAINT MARY   N/A       65  36  34 N5G10      N/A
* SWEET GRASS  N/A       63  34  34 N6         N/A
$$

MTZ011-013-016-021-035-040-045-047-050-051-150200-
NORTH CENTRAL MONTANA
CITY           SKY/WX    TMP DP  RH WIND       PRES   REMARKS
HAVRE          CLEAR     63  34  34 SE5       30.12S
LEWISTOWN      CLEAR     57  36  46 N5        30.16R
* CHESTER      N/A       63  35  35 S3         N/A
* DENTON       N/A       61  33  35 N6         N/A
* GEYSER       N/A       57  30  36 NE7        N/A
* JUDITH GAP   N/A       55  30  39 VRB15G21    N/A
* LOMA         N/A       63  36  37 E6         N/A
$$

MTZ017>020-022>027-061-062-150200-
NORTHEAST MONTANA
CITY           SKY/WX    TMP DP  RH WIND       PRES   REMARKS
GLASGOW        PTCLDY    54  32  43 S5        30.15R
GLENDIVE       CLOUDY    52  36  55 NE5       30.18R
JORDAN         PTCLDY    57  36  46 E6        30.15R
SIDNEY         CLOUDY    54  34  47 SW3       30.18R
WOLF POINT     MOCLDY    57  34  42 W3        30.16R
* BEAVER HILL  N/A       51  34  52 NE4        N/A
* CIRCLE       N/A       54  36  51 N/A        N/A
* LINDSAY DVD  N/A       52  28  40 NE6        N/A
* NAVAJO       N/A       52  34  50 SW2        N/A
* SACO         N/A       58  37  46 SE4        N/A
$$

MTZ028>042-056>058-150200-
SOUTHCENTRAL AND SOUTHEAST MONTANA
CITY           SKY/WX    TMP DP  RH WIND       PRES   REMARKS
BAKER          CLOUDY    54 N/A N/A E7        30.15R
LIVINGSTON     CLEAR     63  39  41 E15       30.10R
MILES CITY     PTCLDY    55  30  39 NE16      30.13R
* LAUREL APT   CLEAR     63  37  38 NE9        N/A
* ROUNDUP APT  CLEAR     61  37  41 N8         N/A
* ALZADA       N/A       52  39  61 NE7        N/A
* HYSHAM       N/A       61  32  34 VRB1       N/A
* LAME DEER    N/A       56  39  53 N7         N/A
* REED POINT   N/A       63  36  37 E4G9       N/A
* ROSCOE HILL  N/A       57  29  34 NE7        N/A
$$

REGIONAL REPORTS...DAKOTAS
CITY           SKY/WX    TMP DP  RH WIND       PRES   REMARKS
WILLISTON      MOCLDY    54  30  40 CALM      30.16S
DICKINSON      CLOUDY    54  34  47 CALM      30.15R
BEACH          N/A       50  32  50 NE3       30.17S
CROSBY         MOCLDY    48  37  66 SW5       30.16S
TIOGA          PTCLDY    46  32  58 NE5       30.19R
WATFORD CITY   CLOUDY    50  32  50 N3        30.15R
BISMARCK       MOCLDY    54  34  47 N7        30.16R
GRAND FORKS    CLOUDY    52  45  77 NW3       30.12R
FARGO          CLOUDY    54  43  67 NW5       30.12S
BUFFALO SD     PTCLDY    54  34  47 E12       30.08R
RAPID CITY     MOCLDY    48  39  71 E7        30.13R
$$

REGIONAL REPORTS...WYOMING/IDAHO/WASHINGTON
CITY           SKY/WX    TMP DP  RH WIND       PRES   REMARKS
GILLETTE       CLEAR     55  43  64 N7        30.12R
SHERIDAN       CLEAR     59  41  51 NW8       30.12R
CODY           CLEAR     57  37  47 NE7       30.14R
YELLOWSTONE LA CLEAR     61  18  19 CALM      30.25R
SALMON         CLEAR     73  48  41 W3        29.95S
MULLAN PASS    PTCLDY    63  28  27 VRB3      30.14S
SAND POINT     CLEAR     72  39  30 N3        29.98F
SPOKANE        PTCLDY    77  32  19 E3        29.98F
$$

REGIONAL REPORTS...SASKATCHEWAN
CITY           SKY/WX    TMP DP  RH WIND       PRES   REMARKS
MOOSE JAW      FAIR     N/A N/A N/A SE2        N/A

$$



USA.gov is the U.S. government's official web portal to all federal, state and local government web resources and services.